Location: ?????????
(53.2086°N, 54.0693°E)
Time: 00:03:13
(UTC+00:00)

Cosmos 2251 Rocket - Pass Details

Date: 08 December 2019
Orbit: 765 x 791 km, 74.0° (Epoch: 22 January)

Event Time Altitude Azimuth Distance (km) Brightness Sun altitude
Rises 13:31:20 0° 176° (S) 3,256 7.0 -11.7°
Reaches altitude 10° 13:33:53 10° 168° (SSE) 2,329 6.1 -12.1°
Maximum altitude 13:38:39 36° 104° (ESE) 1,225 4.2 -12.8°
Enters shadow 13:42:12 16° 46° (NE) 1,918 5.0 -13.3°
